Content
SEND FEEDBACK

Daily
Averages
Monthly
Summary
Switzerland

GENEVA, SWITZERLAND


Home > Europe > Switzerland
Elevation: 415 meters     Latitude: 46 15N     Longitude: 006 08E

WEATHER
 
SELECT A DAY
Number of Records: 305,246;   Date Range: 7/1/96 - 7/7/14
 
SHARE

PRINT THIS DATA

[ ← Previous Day ]
WEATHER ALMANAC - 19 MARCH, 2013
[ Next Day → ]
[ °F ]   °C
Weather ElementAverageHighLow
Temperature6 °C10 °C (1:50 pm)2 °C (7:20 am)
Dewpoint-0.6 °C1.1 °C (9:00 am)-3.9 °C (5:00 pm)
Humidity62.1 %93 % (7:20 am)26 % (5:00 pm)
Barometer1003.4 hPa1006.8 hPa (9:00 am)999 hPa (12:20 am)
Wind Speed17.7 km/h33.3 km/h (1:20 am)
Weather ElementAverage
Visibility12.4 km
Wind DirectionSSW (196 °)

Weather ElementTotal
Precipitation---
Heating Degree Days12.3 (Base 18.3)
Averaged from 65 records on 19 March, 2013
WEATHER CONDITIONS BREAKOUT
WIND DIRECTION BREAKOUT
WEATHER BY HOUR - 19 MARCH, 2013
[ °F ]   °C
Local TimeTemperatureDewpointHumidityBarometerVisibilityWind DirectionWind SpeedGust SpeedPrecipitationEventsConditions
12:20 AM3 °C1 °C87 %999 hPa9 kmSSW (210°)24.1 km/hRainRain
12:50 AM4 °C1 °C81 %999 hPa10 kmSW (220°)24.1 km/hRainLight Rain Showers
1:20 AM5 °C0 °C70 %999 hPa10 kmSW (220°)33.3 km/hMostly Cloudy
1:50 AM4 °C0 °C75 %1000 hPa10 kmSSW (200°)20.4 km/hMostly Cloudy
2:00 AM3.9 °C0.6 °C70 %1001.7 hPaSSW (200°)22.2 km/h
2:50 AM4 °C0 °C75 %1000 hPa10 kmSSW (200°)18.5 km/hMostly Cloudy
3:00 AM3.3 °C0 °C73 %1002.4 hPaSSW (200°)25.9 km/h
3:20 AM4 °C1 °C81 %1001 hPa10 kmSSW (200°)22.2 km/hMostly Cloudy
3:50 AM3 °C1 °C87 %1001 hPa10 kmSSW (200°)24.1 km/hMostly Cloudy
4:20 AM3 °C1 °C87 %1001 hPa10 kmSSW (200°)24.1 km/hRainLight Rain Showers
4:50 AM3 °C1 °C87 %1002 hPa10 kmSouth (190°)18.5 km/hRainLight Rain Showers
5:00 AM3.3 °C0.6 °C74 %1004.1 hPaSSW (200°)16.7 km/h
5:20 AM3 °C1 °C87 %1002 hPa10 kmSouth (190°)20.4 km/hMostly Cloudy
5:50 AM3 °C0 °C81 %1002 hPa10 kmSouth (190°)20.4 km/hMostly Cloudy
6:00 AM3.3 °C0 °C73 %1004.4 hPaSSW (200°)16.7 km/h
6:20 AM3 °C1 °C87 %1003 hPa10 kmSSW (200°)14.8 km/hMostly Cloudy
6:50 AM3 °C1 °C87 %1004.1 hPa9 kmSSW (200°)25.9 km/hRainLight Rain Showers
7:00 AM2.8 °C0.6 °C80 %1005.8 hPa25.7 kmSSW (210°)25.9 km/hMostly Cloudy
7:20 AM2 °C1 °C93 %1004.1 hPa10 kmSSW (210°)22.2 km/hMostly Cloudy
7:50 AM3 °C1 °C87 %1004.1 hPa10 kmSSW (210°)20.4 km/hMostly Cloudy
8:00 AM3.3 °C0.6 °C76 %1006.4 hPaSSW (200°)22.2 km/h
8:20 AM3 °C1 °C87 %1005.1 hPa10 kmSSW (200°)24.1 km/hMostly Cloudy
8:50 AM4 °C1 °C81 %1005.1 hPa10 kmSSW (210°)22.2 km/hMostly Cloudy
9:00 AM3.9 °C1.1 °C74 %1006.8 hPaSSW (210°)24.1 km/h
9:20 AM4 °C1 °C81 %1005.1 hPa10 kmSSW (210°)22.2 km/hMostly Cloudy
9:50 AM6 °C1 °C70 %1005.1 hPa10 kmSW (220°)20.4 km/hMostly Cloudy
10:20 AM6 °C0 °C66 %1005.1 hPa10 kmSSW (210°)22.2 km/hScattered Clouds
10:50 AM6 °C0 °C66 %1005.1 hPa10 kmSSW (210°)22.2 km/hScattered Clouds
11:00 AM6.7 °C-0.6 °C48 %1006.4 hPaSSW (210°)22.2 km/h
11:20 AM8 °C0 °C57 %1005.1 hPa10 kmSW (230°)20.4 km/hScattered Clouds
11:50 AM8 °C1 °C62 %1005.1 hPa10 kmSSW (210°)18.5 km/hScattered Clouds
12:00 PM7.8 °C-1.7 °C40 %1006.1 hPaSW (220°)20.4 km/h
12:20 PM8 °C-1 °C53 %1005.1 hPa10 kmSSW (210°)22.2 km/hScattered Clouds
12:50 PM9 °C-1 °C50 %1005.1 hPa10 kmSSW (200°)22.2 km/hScattered Clouds
1:00 PM8.3 °C-2.8 °C33 %1005.4 hPa49.9 kmSSW (210°)22.2 km/hPartly Cloudy
1:20 PM9 °C-2 °C46 %1004.1 hPa10 kmSW (220°)20.4 km/hScattered Clouds
1:50 PM10 °C-1 °C47 %1004.1 hPa10 kmSW (220°)20.4 km/hScattered Clouds
2:00 PM10 °C-3.3 °C27 %1004.4 hPaSSW (210°)24.1 km/h
2:20 PM10 °C-2 °C43 %1004.1 hPa10 kmSW (220°)20.4 km/hScattered Clouds
2:50 PM9 °C-3 °C43 %1003 hPa10 kmSW (220°)24.1 km/hScattered Clouds
3:00 PM9.4 °C-3.3 °C27 %1004.1 hPaSSW (210°)16.7 km/h
3:20 PM10 °C-2 °C43 %1003 hPa10 kmSSW (200°)18.5 km/hPartly Cloudy
3:50 PM10 °C-3 °C40 %1003 hPa10 kmSW (230°)22.2 km/hMostly Cloudy
4:20 PM10 °C-2 °C43 %1002 hPa10 kmSSW (210°)22.2 km/hMostly Cloudy
4:50 PM10 °C-3 °C40 %1002 hPa10 kmSW (220°)22.2 km/hMostly Cloudy
5:00 PM9.4 °C-3.9 °C26 %1003 hPaSW (220°)18.5 km/h
5:20 PM10 °C-2 °C43 %1002 hPa10 kmSSW (210°)16.7 km/hMostly Cloudy
5:50 PM10 °C-2 °C43 %1002 hPa10 kmSW (220°)22.2 km/hMostly Cloudy
6:00 PM9.4 °C-2.8 °C30 %1002.7 hPaSW (220°)18.5 km/h
6:20 PM9 °C-2 °C46 %1002 hPa10 kmSSW (200°)13 km/hMostly Cloudy
6:50 PM9 °C-2 °C46 %1002 hPa10 kmSSW (200°)13 km/hMostly Cloudy
7:00 PM8.3 °C-2.2 °C34 %1003 hPa59.5 kmSW (230°)9.3 km/hScattered Clouds
7:20 PM8 °C-2 °C50 %1002 hPa10 kmWSW (250°)7.4 km/hMostly Cloudy
7:50 PM6 °C-1 °C61 %1002 hPa10 kmVariable3.7 km/hScattered Clouds
8:00 PM5 °C-1.7 °C52 %1003.7 hPaNorth (10°)1.9 km/h
8:20 PM5 °C-1 °C65 %1003 hPa10 kmVariable1.9 km/hScattered Clouds
8:50 PM4 °C-1 °C70 %1003 hPa10 kmVariable1.9 km/hPartly Cloudy
9:00 PM5 °C-1.1 °C54 %1004.4 hPaWNW (290°)1.9 km/h
9:20 PM4 °C0 °C75 %1003 hPaSW (220°)7.4 km/hClear
9:50 PM5 °C0 °C70 %1003 hPaWest (270°)7.4 km/hClear
10:20 PM5 °C-1 °C65 %1003 hPaSSW (200°)5.6 km/hClear
10:50 PM6 °C0 °C66 %1003 hPaSouth (180°)5.6 km/hClear
11:00 PM6.1 °C-1.1 °C48 %1004.1 hPaSW (220°)3.7 km/h
11:20 PM5 °C-1 °C65 %1003 hPaSW (230°)5.6 km/hClear
11:50 PM5 °C-1 °C65 %1002 hPaVariable5.6 km/hClear
Hourly data recorded from LSGG, located 0 kilometers away from Geneva, Switzerland







STORIES FROM OUR PARTNERS